This is the latest recevied weather packets stored in our database for station/object CE3JSG-13. If no packets are shown the sender has not sent any weather packets the latest 10 day(s).
| Time | Temp. | Humidity | Pressure | Rain* | Wind** | Luminosity | Snow |
|---|---|---|---|---|---|---|---|
| 1777687036 | 13.33° C | 93% | 1021.7 hPa | - | - | - | - |
| 1777686616 | 13.89° C | 93% | 1021.4 hPa | - | - | - | - |
| 1777686196 | 13.89° C | 93% | 1021.5 hPa | - | - | - | - |
| 1777685776 | 13.89° C | 93% | 1021.7 hPa | - | - | - | - |
| 1777685356 | 13.89° C | 88% | 1021.3 hPa | - | - | - | - |
| 1777684935 | 13.89° C | 88% | 1021.7 hPa | - | - | - | - |
| 1777684515 | 14.44° C | 88% | 1021 hPa | - | - | - | - |
| 1777684096 | 14.44° C | 87% | 1021.7 hPa | - | - | - | - |
| 1777683675 | 14.44° C | 88% | 1021.5 hPa | - | - | - | - |
| 1777683256 | 14.44° C | 87% | 1021.1 hPa | - | - | - | - |
| 1777682836 | 14.44° C | 88% | 1021.4 hPa | - | - | - | - |
| 1777682416 | 14.44° C | 87% | 1021.4 hPa | - | - | - | - |
| 1777681996 | 14.44° C | 88% | 1021.3 hPa | - | - | - | - |
| 1777681576 | 15° C | 88% | 1021.2 hPa | - | - | - | - |
| 1777681159 | 15° C | 88% | 1021.2 hPa | - | - | - | - |
| 1777680736 | 15° C | 86% | 1021.1 hPa | - | - | - | - |
| 1777680315 | 15° C | 87% | 1020.9 hPa | - | - | - | - |
| 1777679896 | 15° C | 87% | 1020.9 hPa | - | - | - | - |
| 1777679476 | 15° C | 86% | 1021.1 hPa | - | - | - | - |
| 1777679056 | 15° C | 84% | 1021.2 hPa | - | - | - | - |
| 1777678635 | 15° C | 83% | 1020.9 hPa | - | - | - | - |
| 1777678216 | 15° C | 84% | 1020.5 hPa | - | - | - | - |
| 1777677796 | 15° C | 83% | 1021.6 hPa | - | - | - | - |
| 1777677376 | 15.56° C | 83% | 1021.3 hPa | - | - | - | - |
| 1777676956 | 15.56° C | 80% | 1021.1 hPa | - | - | - | - |
* Rain since midnight (hover to see other rain measurements)
** Current wind speed in m/s (hover to see current wind gust speed)